#timestamp,LO_Frequency,Hit,StdDev 
1553925615.5,286046999.7,N
1553925635.3,286047004.2,N
1553925655.1,286047002.6,N
1553925675.9,286047003.6,N
1553925695.7,286047000.1,N
1553925715.6,286047001.1,N
1553925735.4,286046998.6,N
1553925755.2,286046996.6,N
1553925775.1,286046997.7,N
1553925776.0,286047011.9,Y
1553925795.8,286046996.5,P
1553925815.6,286046999.4,N
1553925835.5,286047000.8,N
1553925855.3,286046999.9,N
1553925875.2,286047000.8,N
1553925895.9,286047000.4,N
1553925915.7,286046998.4,N
1553925935.6,286046998.2,N
1553925955.4,286046998.2,N
1553925975.3,286047000.0,N
1553925995.1,286046996.5,N
1553925996.0,286046996.5,N
1553926015.8,286046997.4,N
1553926035.7,286046997.3,N
1553926055.5,286046998.5,N
1553926075.3,286047002.6,N
1553926095.2,286046999.8,N
1553926115.0,286046999.2,N
1553926115.9,286046999.2,N
1553926135.8,286047001.2,N
1553926155.6,286046998.7,N
1553926175.4,286046998.3,N
1553926195.3,286046998.6,N
1553926215.1,286046998.4,N
1553926235.8,286047000.8,N
1553926255.7,286046999.1,N
1553926275.5,286046999.1,N
1553926295.3,286046998.6,N
1553926315.2,286046998.8,N
1553926335.0,286047001.2,N
1553926335.9,286047001.2,N
1553926355.5,286047000.9,N
1553926375.3,286047000.3,N
1553926395.1,286047000.9,N
1553926415.9,286047000.9,N
1553926435.7,286046999.9,N
1553926455.5,286047000.3,N
1553926475.4,286047002.2,N
1553926495.2,286047003.7,N
1553926515.1,286047005.6,Y
1553926516.0,286047005.6,P
1553926535.8,286047006.7,N
1553926555.6,286047005.8,N
1553926575.5,286047005.1,N
1553926595.3,286047005.9,N
1553926615.1,286047003.2,N
1553926635.9,286047003.0,N
1553926655.7,286047003.4,N
1553926675.6,286047004.2,N
1553926695.4,286047002.3,N
1553926715.2,286047000.0,N
1553926735.1,286047000.4,N
1553926736.0,286047000.4,N
1553926755.8,286046998.8,N
1553926775.6,286046998.2,N
1553926795.5,286046998.2,N
1553926815.3,286047000.9,N
1553926835.2,286047002.6,N
1553926855.9,286047004.4,N
1553926875.7,286047000.3,N
1553926895.6,286047000.1,N
1553926915.4,286047000.2,N
1553926935.2,286047001.5,N
1553926955.1,286047003.7,N
1553926956.0,286047003.7,N
1553926975.8,286046999.7,N
1553926995.7,286047001.4,N
1553927015.5,286047001.3,N
1553927035.3,286047003.6,N
1553927055.2,286047002.9,N
1553927075.0,286047002.2,N
1553927075.9,286047002.2,N
1553927095.7,286046999.8,N
1553927115.6,286047000.1,N
1553927135.4,286047000.1,N
1553927155.3,286047000.1,N
1553927175.1,286046999.9,N
1553927176.0,286046999.9,N
1553927195.8,286047002.3,N
1553927215.7,286047004.1,N
1553927235.5,286046999.9,N
1553927255.3,286047000.0,N
1553927275.2,286047001.0,N
1553927295.0,286047001.5,N
1553927295.9,286047001.5,N
1553927315.8,286047002.8,N
1553927335.6,286047001.1,N
1553927355.4,286046998.3,N
1553927375.3,286047001.0,N
1553927395.1,286046998.3,N
1553927415.8,286046998.7,N
1553927435.7,286046998.6,N
1553927455.5,286047000.3,N
1553927475.4,286047004.2,N
1553927495.2,286047002.6,N
1553927515.0,286047002.2,N
1553927515.9,286047002.2,N
1553927535.8,286047000.2,N
1553927555.6,286047001.0,N
1553927575.5,286046998.8,N
1553927595.3,286046998.2,N
1553927615.1,286046998.3,N
1553927635.9,286046998.1,N
1553927655.7,286046996.9,N
1553927675.5,286046996.8,N
1553927695.4,286046999.3,N
1553927715.2,286046998.9,N
1553927735.1,286046998.7,N
1553927736.0,286046998.7,N
1553927755.8,286047000.1,N
1553927775.6,286047000.6,N
1553927795.5,286047002.4,N
1553927815.3,286047002.0,N
1553927835.1,286047002.2,N
1553927855.7,286047001.4,N
1553927875.5,286047003.8,N
1553927895.3,286047002.8,N
1553927915.2,286046998.6,N
1553927935.0,286046998.7,N
1553927935.9,286046998.7,N
1553927955.8,286046999.3,N
1553927975.6,286046998.7,N
1553927995.4,286046998.8,N
1553928015.3,286047000.7,N
1553928035.1,286047002.2,N
1553928055.9,286047001.8,N
1553928075.7,286047004.1,N
1553928095.5,286047005.9,Y
1553928115.4,286047003.1,P
1553928135.2,286047003.6,N
1553928155.1,286047001.3,N
1553928156.0,286047001.3,N
1553928175.8,286047001.8,N
1553928195.6,286047004.1,Y
1553928215.5,286047002.8,P
1553928235.3,286046999.7,N
1553928255.1,286047000.0,N
1553928275.9,286047002.2,N
1553928295.7,286047002.6,N
1553928315.6,286047004.4,Y
1553928335.4,286046999.8,P
1553928355.2,286047000.8,N
1553928375.1,286046999.8,N
1553928376.0,286046999.8,N
1553928395.8,286047002.6,Y
1553928415.7,286047002.5,P
1553928435.5,286047000.6,N
1553928455.3,286047003.2,P
1553928475.2,286047001.7,N
1553928495.0,286047002.0,N
1553928495.9,286047002.0,N
1553928515.7,286046999.9,N
1553928535.6,286046998.7,N
1553928555.4,286046996.5,N
1553928575.3,286046996.9,N
1553928595.1,286046996.7,N
1553928596.0,286046996.7,N
1553928615.8,286046999.5,N
1553928635.7,286046998.1,N
1553928655.5,286046996.8,N
1553928675.3,286046999.9,N
1553928695.2,286046999.3,N
1553928715.0,286047000.5,N
1553928715.9,286047000.5,N
1553928735.8,286046997.0,N
1553928755.6,286046995.3,N
1553928775.4,286046997.9,N
1553928795.3,286046997.6,N
1553928815.1,286046993.9,N
1553928835.8,286046993.4,N
1553928855.7,286046995.5,N
1553928875.5,286046993.3,N
1553928895.4,286046993.7,N
1553928915.2,286046996.4,N
1553928935.0,286046994.0,N
1553928935.9,286046994.0,N
1553928955.8,286046994.6,N
1553928975.6,286046993.8,N
1553928995.4,286046997.8,N
1553929015.3,286046998.0,N
1553929035.1,286046996.9,N
1553929055.9,286047001.1,N
1553929075.7,286046997.0,N
1553929095.5,286046996.5,N
1553929115.4,286046997.7,N
1553929135.2,286046995.3,N
1553929155.0,286046997.6,N
1553929155.9,286046997.6,N
1553929175.8,286046993.6,N
1553929195.6,286046993.6,N
